This is the latest recevied weather packets stored in our database for station/object K1LBG. If no packets are shown the sender has not sent any weather packets the latest 10 day(s).
| Time | Temp. | Humidity | Pressure | Rain* | Wind** | Luminosity | Snow |
|---|---|---|---|---|---|---|---|
| 1777740395 | 12.78° C | 76% | 1011.3 hPa | 0 mm | - | - | - |
| 1777740084 | 12.78° C | 76% | 1011.3 hPa | 0 mm | - | - | - |
| 1777739783 | 12.78° C | 76% | 1011.1 hPa | 0 mm | - | - | - |
| 1777739194 | 12.78° C | 76% | 1011.2 hPa | 0 mm | - | - | - |
| 1777737092 | 13.33° C | 81% | 1011.6 hPa | 0.25 mm | - | - | - |
| 1777736196 | 12.78° C | 79% | 1011.5 hPa | 0.25 mm | - | - | - |
| 1777735585 | 12.22° C | 79% | 1011.7 hPa | 0.25 mm | - | - | - |
| 1777735288 | 12.78° C | 81% | 1011.7 hPa | 0.25 mm | - | - | - |
| 1777734085 | 12.78° C | 79% | 1012.1 hPa | 0 mm | - | - | - |
| 1777733808 | 12.78° C | 77% | 1011.9 hPa | 0 mm | - | - | - |
| 1777732286 | 12.78° C | 75% | 1011.7 hPa | 0 mm | - | - | - |
| 1777731991 | 12.78° C | 77% | 1011.7 hPa | 0 mm | - | - | - |
| 1777729614 | 11.11° C | 80% | 1012.1 hPa | 0 mm | - | - | - |
| 1777727815 | 10.56° C | 83% | 1012.5 hPa | 0 mm | - | - | - |
| 1777727190 | 10.56° C | 83% | 1012.7 hPa | 0 mm | - | - | - |
| 1777724501 | 11.11° C | 80% | 1012.5 hPa | 0 mm | - | - | - |
| 1777724187 | 11.11° C | 81% | 1012.5 hPa | 0 mm | - | - | - |
| 1777722395 | 10° C | 86% | 1012 hPa | 0 mm | - | - | - |
| 1777720588 | 8.33° C | 90% | 1011.9 hPa | 0 mm | - | - | - |
| 1777719399 | 7.78° C | 91% | 1011.9 hPa | 0 mm | - | - | - |
| 1777718498 | 7.78° C | 92% | 1011.6 hPa | 0 mm | - | - | - |
| 1777713403 | 7.78° C | 90% | 1011.3 hPa | 0 mm | - | - | - |
| 1777710080 | 7.22° C | 84% | 1011.5 hPa | 0 mm | - | - | - |
| 1777707981 | 7.22° C | 82% | 1011.3 hPa | 0 mm | - | - | - |
| 1777706185 | 7.22° C | 82% | 1011.4 hPa | 0 mm | - | - | - |
* Rain latest hour (hover to see other rain measurements)
** Current wind speed in m/s (hover to see current wind gust speed)